Погода в Грехене

Швейцария     46°11′47″N   7°50′26″E
темп.,
°C
ветер,
м/с
пор.,
м/с
влажн.,
%
обл.,
%
осадки,
мм/ч
давл.,
гПа
погр.,
м
14 августа, вс
вс1423:00+10ю12667 0.0 101717
02:00+9ю1267100 0.0 101713
05:00+9ююв1255100 0.0 101517
08:00+11ююв125299 0.0 101428
11:00+16св224298 0.0 1011456
14:00+20св333280 0.0 10092275
17:00+15юв1164100 0.3 1010697
20:00+12юв1188100 2.0 101148
15 августа, пн
пн1523:00+10сз1196100 6.8 101378
02:00+8юв129290 8.6 101231
05:00+7юв11882 0.1 101211
08:00+10ююв018110 0.1 101167
11:00+13ссз116876 0.8 1010590
14:00+14зюз115899 1.8 1009940
17:00+16ссз125227 1.4 10081025
20:00+12ссз1170100 2.2 101018
16 августа, вт
вт1623:00+8юз12802 0.0 101415
02:00+8ю12791 0.0 101413
05:00+7ююв22755 0.0 101423
08:00+10юв12700 0.0 101468
11:00+16св22495 0.0 10121202
14:00+19св224470 0.0 10121865
17:00+15вюв237196 0.4 1013221
20:00+12в338433 1.3 101482
17 августа, ср
ср1723:00+10вюв349023 0.3 101661
02:00+9вюв239041 0.3 101645
05:00+10в239494 0.9 101588
08:00+11вюв23901 1.0 1015125
11:00+14в23716 1.1 1014850
14:00+16всв2368100 3.6 1014958
17:00+15в226956 3.2 1013876
20:00+11в228988 5.9 101455
18 августа, чт
чт1823:00+9всв119496 2.1 101744
02:00+8сз0098100 2.4 101740
05:00+9сз119899 0.6 101687
08:00+9в129497 1.1 1015146
11:00+13ссв117582 2.3 1013264
14:00+14сз2271100 6.1 1013689
17:00+9ссв1295100 7.1 1015132
20:00+7зюз2296100 17.4 1016253